COSMOS 1455

Last updated on Sun Aug 31 2025 00:02:14 GMT+0000 (Coordinated Universal Time)

1 14032U 83037A 25242.47279656 .01216019 -11913-5 81976-3 0 9997 2 14032 82.4815 323.1860 0008362 249.7256 110.3133 16.16754823318240
UTC large
Height (km)
Speed (km/s)
/
Latitude / Longitude
Inclination (degrees)
Orbital Period (minutes)
Azimuth
Elevation
Range (km)
Doppler Factor

Next 0 passes for location: London (51.5072 / 0.1276)

Sorry there are no passes over London.